EW2848 Weather Reports


Display with metric or nautical units.
time (UTC)temp
F
wind
direction
speed
MPH
gust
MPH
rain 1hr
in
rain 24hr
in
rain mn
in
humidity
%
barometer
mb
20190318131607 42 241 0.0 0.0 0.00 0.00 0.00 91 1087.7
20190318130042 42 241 0.0 0.0 0.00 0.00 0.00 90 1087.5
20190318124543 42 241 0.0 0.0 0.00 0.00 0.00 90 1087.1
20190318123033 43 241 0.0 0.0 0.00 0.00 0.00 90 1086.8
20190318121554 43 241 0.0 0.0 0.00 0.00 0.00 90 1086.7
20190318120036 43 241 0.0 0.0 0.00 0.00 0.00 90 1086.8
20190318114551 43 241 0.0 0.0 0.00 0.00 0.00 90 1086.7
20190318113041 43 313 0.0 0.0 0.00 0.00 0.00 92 1086.8
20190318111601 42 157 0.0 0.0 0.00 0.00 0.00 92 1086.8
20190318110130 42 157 0.0 0.0 0.00 0.00 0.00 91 1086.7
20190318104551 42 157 0.0 0.0 0.00 0.00 0.00 90 1086.6
20190318103024 42 157 0.0 0.0 0.00 0.00 0.00 90 1086.4
20190318101607 42 157 0.0 0.0 0.00 0.00 0.00 90 1086.5
20190318100112 43 157 0.0 0.0 0.00 0.00 0.00 89 1086.5
20190318094604 43 157 0.0 0.0 0.00 0.00 0.00 89 1086.6
20190318093053 43 157 0.0 0.0 0.00 0.00 0.00 89 1086.8
20190318091534 43 157 0.0 0.0 0.00 0.00 0.00 90 1086.9
20190318090024 44 157 0.0 0.0 0.00 0.00 0.00 91 1086.7
20190318084552 44 157 0.0 0.0 0.00 0.00 0.00 91 1086.9
20190318083018 43 157 0.0 0.0 0.00 0.00 0.00 92 1086.8
20190318081523 43 157 0.0 0.0 0.00 0.00 0.00 92 1086.9
20190318080027 42 156 0.0 0.0 0.00 0.00 0.00 92 1086.9
20190318074520 42 156 0.0 0.0 0.00 0.00 0.00 91 1087.1
20190318073037 43 156 0.0 0.0 0.00 0.00 0.00 90 1087.1
20190318071515 43 157 0.0 0.0 0.00 0.00 0.00 90 1087.1
20190318070010 44 157 0.0 0.0 0.00 0.00 0.00 90 1087.2
20190318064518 44 157 0.0 0.0 0.00 0.00 0.00 90 1087.1
20190318063004 45 157 0.0 0.0 0.00 0.00 0.00 91 1087.3
20190318060139 44 157 0.0 0.0 0.00 0.00 0.00 91 1087.0
20190318054629 44 156 0.0 0.0 0.00 0.00 0.00 90 1087.1
20190318053141 44 156 0.0 0.0 0.00 0.00 0.00 88 1087.0
20190318051527 44 156 0.0 0.0 0.00 0.00 0.00 86 1087.1
20190318050047 45 156 0.0 0.0 0.00 0.00 0.00 84 1087.2
20190318044542 45 156 0.0 0.0 0.00 0.00 0.00 84 1087.1
20190318043058 46 156 0.0 0.0 0.00 0.00 0.00 82 1087.2
20190318041557 46 156 0.0 0.0 0.00 0.00 0.00 82 1087.3
20190318040051 47 157 0.0 0.0 0.00 0.00 0.00 81 1087.4
20190318034528 47 156 0.0 0.0 0.00 0.00 0.00 79 1087.2
20190318033044 46 156 0.0 0.0 0.00 0.00 0.00 76 1087.2
20190318031545 47 157 0.0 0.0 0.00 0.00 0.00 71 1087.1
20190318030036 47 156 0.0 0.0 0.00 0.00 0.00 69 1086.8
20190318024536 48 156 0.0 0.0 0.00 0.00 0.00 68 1086.7
20190318023023 49 156 0.0 0.0 0.00 0.00 0.00 65 1086.5
20190318021554 50 156 0.0 0.0 0.00 0.00 0.00 63 1086.4
20190318020053 51 156 0.0 0.0 0.00 0.00 0.00 61 1086.5
20190318014541 51 157 0.0 0.0 0.00 0.00 0.00 58 1086.0
20190318013026 52 156 0.0 0.0 0.00 0.00 0.00 56 1086.2
20190318011524 53 156 0.0 0.0 0.00 0.00 0.00 53 1085.8
20190318010019 55 156 0.0 0.0 0.00 0.00 0.00 51 1085.9
20190318004522 57 156 0.0 0.0 0.00 0.00 0.00 49 1086.1
20190318003032 59 156 0.0 0.0 0.00 0.00 0.00 45 1086.0
20190318001522 61 145 0.0 0.0 0.00 0.00 0.00 43 1085.8
20190318000015 62 137 0.0 0.0 0.00 0.00 0.00 42 1085.5
20190317234509 63 130 0.0 0.0 0.00 0.00 0.00 39 1085.5
20190317233013 63 140 0.0 0.0 0.00 0.00 0.00 36 1085.5
20190317231508 64 213 0.0 0.0 0.00 0.00 0.00 36 1085.4
20190317230011 65 127 0.0 0.0 0.00 0.00 0.00 36 1085.4
20190317224519 65 144 0.0 0.0 0.00 0.00 0.00 36 1085.5
20190317223006 65 144 0.0 0.0 0.00 0.00 0.00 34 1085.9
20190317221755 65 137 0.0 0.0 0.00 0.00 0.00 36 1085.8
20190317220116 64 158 0.0 0.0 0.00 0.00 0.00 39 1085.8
20190317214729 64 133 0.0 0.0 0.00 0.00 0.00 36 1085.9
20190317213117 63 150 0.0 0.0 0.00 0.00 0.00 40 1086.1
20190317211653 63 170 0.0 0.0 0.00 0.00 0.00 37 1086.3
20190317210233 64 107 0.0 0.0 0.00 0.00 0.00 39 1086.5
20190317204717 63 217 0.0 0.0 0.00 0.00 0.00 37 1086.6
20190317203150 63 139 0.0 0.0 0.00 0.00 0.00 36 1086.8
20190317201700 62 138 0.0 0.0 0.00 0.00 0.00 36 1087.1
20190317200145 63 178 0.0 4.0 0.00 0.00 0.00 36 1087.3
20190317194641 63 120 0.0 1.0 0.00 0.00 0.00 40 1087.6
20190317193206 63 163 0.0 0.0 0.00 0.00 0.00 40 1088.0
20190317191619 63 137 0.0 0.0 0.00 0.00 0.00 37 1088.3
20190317190123 63 304 0.0 0.0 0.00 0.00 0.00 41 1088.6
20190317184600 63 152 0.0 0.0 0.00 0.00 0.00 39 1088.8
20190317183101 61 123 0.0 1.0 0.00 0.00 0.00 43 1089.2
20190317181550 60 134 0.0 0.0 0.00 0.00 0.00 43 1089.6
20190317180118 60 153 0.0 0.0 0.00 0.00 0.00 42 1089.9
20190317174604 60 145 0.0 0.0 0.00 0.00 0.00 43 1090.3
20190317173103 60 339 0.0 0.0 0.00 0.00 0.00 44 1090.3
20190317171614 60 335 0.0 0.0 0.00 0.00 0.00 42 1090.3
20190317170103 59 167 0.0 0.0 0.00 0.00 0.00 45 1090.3
20190317164547 58 350 0.0 0.0 0.00 0.00 0.00 46 1090.5
20190317163044 58 350 0.0 0.0 0.00 0.00 0.00 47 1090.6
20190317161540 57 355 0.0 0.0 0.00 0.00 0.00 48 1090.6
20190317160011 56 355 0.0 0.0 0.00 0.00 0.00 51 1090.6
20190317154508 55 145 0.0 0.0 0.00 0.00 0.00 58 1090.7
20190317153003 54 49 0.0 0.0 0.00 0.00 0.00 58 1090.9
20190317151704 53 288 0.0 0.0 0.00 0.00 0.00 64 1090.8
20190317150152 51 288 0.0 0.0 0.00 0.00 0.00 68 1090.5
20190317144652 49 288 0.0 0.0 0.00 0.00 0.00 77 1090.2
20190317143209 46 288 0.0 0.0 0.00 0.00 0.00 83 1090.1
20190317141632 44 288 0.0 0.0 0.00 0.00 0.00 89 1089.9
20190317140139 42 288 0.0 0.0 0.00 0.00 0.00 94 1089.9
20190317134640 41 288 0.0 0.0 0.00 0.00 0.00 94 1089.6
20190317133143 40 288 0.0 0.0 0.00 0.00 0.00 95 1089.7